Flag for Ireland

Past Weather in Letterkenny, Ireland — Yesterday and Last 2 Weeks

Now
60 °F

Cool.


Feels Like: 59 °F
Forecast: 68 / 58 °F
Wind: 6 mph from North

Location: Castlederg
Current Time: Aug 12, 2020 at 11:15:01 am
Latest Report: Aug 12, 2020 at 10:00 am
Visibility: 13 mi
Pressure30.04 "Hg
Humidity: 90%
Dew Point: 56 °F
Location of LetterkennyLocation

Past Weather in Letterkenny — Graph

°F

Letterkenny Temperature Yesterday

Maximum temperature yesterday: 76 °F (at 4:00 pm)
Minimum temperature yesterday: 56 °F (at 5:00 am)
Average temperature yesterday: 64 °F

High & Low Weather Summary for the Past Weeks

 TemperatureHumidityPressure
High76 °F (Aug 11, 4:00 pm)100% (Aug 8, 9:00 am)30.27 "Hg (Aug 8, 9:00 am)
Low44 °F (Aug 9, 6:00 am)49% (Aug 3, 11:00 am)29.47 "Hg (Aug 4, 6:00 pm)
Average59 °F85%29.94 "Hg
* Reported Jul 28 9:00 am — Aug 12 9:00 am, Letterkenny. Weather by CustomWeather, © 2020

Note: Actual official high and low records may vary slightly from our data, if they occured in-between our weather recording intervals... More about our weather records

Letterkenny Weather History for the Previous 24 Hours

Scroll right to see more
 ConditionsComfort  
Time TempWeatherWind HumidityBarometerVisibility
9:00 am
Wed, Aug 12
59 °FCool.5 mph91%30.04 "Hg16 mi
8:00 am59 °FCool.3 mph92%30.03 "Hg11 mi
7:00 am59 °FCool.3 mph93%30.02 "Hg12 mi
6:00 am59 °FCool.3 mph94%30.02 "Hg13 mi
5:00 am58 °FCool.3 mph94%30.02 "Hg9 mi
4:00 am59 °FCool.2 mph93%30.02 "Hg10 mi
3:00 am60 °FCool.2 mph89%30.03 "Hg19 mi
2:00 am61 °FCool.2 mph87%30.02 "Hg19 mi
1:00 am61 °FCool.1 mph87%30.03 "Hg25 mi
12:00 am62 °FCool.2 mph83%30.03 "Hg13 mi
11:00 pm
Tue, Aug 11
62 °FMild.1 mph84%30.03 "Hg22 mi
10:00 pm62 °FCool.2 mph85%30.02 "Hg13 mi
9:00 pm64 °FMild.1 mph81%30.01 "Hg25 mi
8:00 pm68 °FMild.6 mph77%30.00 "Hg28 mi
7:00 pm70 °FMild.6 mph72%29.99 "Hg25 mi
6:00 pm75 °FMild.2 mph60%29.99 "Hg19 mi
5:00 pm74 °FMild.2 mph59%30.00 "Hg25 mi
4:00 pm76 °FMild.3 mph60%30.01 "Hg19 mi
3:00 pm75 °FMild.3 mph59%30.02 "Hg22 mi
1:00 pm72 °FMild.1 mph63%30.03 "Hg14 mi
12:00 pm69 °FMild.3 mph74%30.04 "Hg11 mi
11:00 am65 °FMild.1 mph80%30.04 "Hg19 mi
Weather by CustomWeather, © 2020

See weather overview